Time,TemperatureF,DewpointF,PressureIn,WindDirection,WindDirectionDegrees,WindSpeedMPH,WindSpeedGustMPH,Humidity,HourlyPrecipIn,Conditions,Clouds,dailyrainin,SolarRadiationWatts/m^2,SoftwareType,DateUTC
2013-02-08 00:11:00,30.0,10.0,-100.00,NNW,334,2.0,6.0,43,0.00,,,0.00,0.000000,,2013-02-08 07:11:00,
2013-02-08 00:21:00,30.0,10.0,-100.00,NNW,334,2.0,6.0,43,0.00,,,0.00,0.000000,,2013-02-08 07:21:00,
2013-02-08 00:31:00,30.0,10.0,-100.00,NNW,334,2.0,6.0,43,0.00,,,0.00,0.000000,,2013-02-08 07:31:00,
2013-02-08 00:42:00,30.0,10.0,-100.00,NNW,334,2.0,6.0,43,0.00,,,0.00,0.000000,,2013-02-08 07:42:00,
2013-02-08 00:51:00,30.0,10.0,-100.00,NNW,334,2.0,6.0,43,0.00,,,0.00,0.000000,,2013-02-08 07:51:00,
2013-02-08 01:11:00,29.0,9.0,-100.00,NNW,328,1.0,5.0,43,0.00,,,0.00,0.000000,,2013-02-08 08:11:00,
2013-02-08 01:21:00,29.0,9.0,-100.00,NNW,328,1.0,5.0,43,0.00,,,0.00,0.000000,,2013-02-08 08:21:00,
2013-02-08 01:32:00,29.0,9.0,-100.00,NNW,328,1.0,5.0,43,0.00,,,0.00,0.000000,,2013-02-08 08:32:00,
2013-02-08 01:41:00,29.0,9.0,-100.00,NNW,328,1.0,5.0,43,0.00,,,0.00,0.000000,,2013-02-08 08:41:00,
2013-02-08 01:52:00,29.0,9.0,-100.00,NNW,328,1.0,5.0,43,0.00,,,0.00,0.000000,,2013-02-08 08:52:00,
2013-02-08 02:21:00,29.0,9.0,-100.00,NNW,338,2.0,8.0,42,0.00,,,0.00,0.000000,,2013-02-08 09:21:00,
2013-02-08 02:31:00,29.0,9.0,-100.00,NNW,338,2.0,8.0,42,0.00,,,0.00,0.000000,,2013-02-08 09:31:00,
2013-02-08 02:42:00,29.0,9.0,-100.00,NNW,338,2.0,8.0,42,0.00,,,0.00,0.000000,,2013-02-08 09:42:00,
2013-02-08 02:51:00,29.0,9.0,-100.00,NNW,338,2.0,8.0,42,0.00,,,0.00,0.000000,,2013-02-08 09:51:00,
2013-02-08 03:22:00,27.0,9.0,-100.00,NNE,20,0.0,8.0,45,0.00,,,0.00,0.000000,,2013-02-08 10:22:00,
2013-02-08 03:31:00,27.0,9.0,-100.00,NNE,20,0.0,8.0,45,0.00,,,0.00,0.000000,,2013-02-08 10:31:00,
2013-02-08 03:41:00,27.0,9.0,-100.00,NNE,20,0.0,8.0,45,0.00,,,0.00,0.000000,,2013-02-08 10:41:00,
2013-02-08 03:51:00,27.0,9.0,-100.00,NNE,20,0.0,8.0,45,0.00,,,0.00,0.000000,,2013-02-08 10:51:00,
2013-02-08 04:21:00,29.0,9.0,-100.00,NNW,328,5.0,6.0,43,0.00,,,0.00,0.000000,,2013-02-08 11:21:00,
2013-02-08 04:32:00,29.0,9.0,-100.00,NNW,328,5.0,6.0,43,0.00,,,0.00,0.000000,,2013-02-08 11:32:00,
2013-02-08 05:11:00,27.0,9.0,-100.00,NE,46,3.0,8.0,47,-99.99,,,0.00,0.000000,,2013-02-08 12:11:00,
2013-02-08 05:22:00,27.0,9.0,-100.00,NE,46,3.0,8.0,47,-99.99,,,0.00,0.000000,,2013-02-08 12:22:00,
2013-02-08 05:32:00,27.0,9.0,-100.00,NE,46,3.0,8.0,47,-99.99,,,0.00,0.000000,,2013-02-08 12:32:00,
2013-02-08 05:42:00,27.0,9.0,-100.00,NE,46,3.0,8.0,47,-99.99,,,0.00,0.000000,,2013-02-08 12:42:00,
2013-02-08 05:52:00,27.0,9.0,-100.00,NE,46,3.0,8.0,47,-99.99,,,0.00,0.000000,,2013-02-08 12:52:00,
2013-02-08 06:11:00,26.0,9.0,-100.00,ENE,69,2.0,8.0,48,0.00,,,0.00,0.000000,,2013-02-08 13:11:00,
2013-02-08 06:21:00,26.0,9.0,-100.00,ENE,69,2.0,8.0,48,0.00,,,0.00,0.000000,,2013-02-08 13:21:00,
2013-02-08 06:32:00,26.0,9.0,-100.00,ENE,69,2.0,8.0,48,0.00,,,0.00,0.000000,,2013-02-08 13:32:00,
2013-02-08 06:42:00,26.0,9.0,-100.00,ENE,69,2.0,8.0,48,0.00,,,0.00,0.000000,,2013-02-08 13:42:00,
2013-02-08 06:51:00,26.0,9.0,-100.00,ENE,69,2.0,8.0,48,0.00,,,0.00,0.000000,,2013-02-08 13:51:00,
2013-02-08 07:11:00,26.0,9.0,-100.00,WNW,291,3.0,11.0,47,0.00,,,0.00,0.000000,,2013-02-08 14:11:00,
2013-02-08 07:21:00,26.0,9.0,-100.00,WNW,291,3.0,11.0,47,0.00,,,0.00,0.000000,,2013-02-08 14:21:00,
2013-02-08 07:32:00,26.0,9.0,-100.00,WNW,291,3.0,11.0,47,0.00,,,0.00,0.000000,,2013-02-08 14:32:00,
2013-02-08 07:41:00,26.0,9.0,-100.00,WNW,291,3.0,11.0,47,0.00,,,0.00,0.000000,,2013-02-08 14:41:00,
2013-02-08 07:52:00,26.0,9.0,-100.00,WNW,291,3.0,11.0,47,0.00,,,0.00,0.000000,,2013-02-08 14:52:00,
2013-02-08 08:11:00,27.0,10.0,-100.00,NW,305,9.0,10.0,49,0.00,,,0.00,1.000000,,2013-02-08 15:11:00,
2013-02-08 09:21:00,28.0,13.0,-100.00,NW,310,8.0,15.0,53,-99.99,,,0.00,85.000000,,2013-02-08 16:21:00,
2013-02-08 10:12:00,31.0,13.0,-100.00,East,94,1.0,15.0,46,-99.99,,,0.00,258.000000,,2013-02-08 17:12:00,
2013-02-08 10:22:00,31.0,13.0,-100.00,East,94,1.0,15.0,46,-99.99,,,0.00,258.000000,,2013-02-08 17:22:00,
2013-02-08 10:42:00,31.0,13.0,-100.00,East,94,1.0,15.0,46,-99.99,,,0.00,258.000000,,2013-02-08 17:42:00,
2013-02-08 10:52:00,31.0,13.0,-100.00,East,94,1.0,15.0,46,-99.99,,,0.00,258.000000,,2013-02-08 17:52:00,
2013-02-08 11:12:00,33.0,14.0,-100.00,ENE,77,0.0,8.0,45,0.00,,,0.00,217.000000,,2013-02-08 18:12:00,
2013-02-08 11:23:00,33.0,14.0,-100.00,ENE,77,0.0,8.0,45,0.00,,,0.00,217.000000,,2013-02-08 18:23:00,
2013-02-08 11:33:00,33.0,14.0,-100.00,ENE,77,0.0,8.0,45,0.00,,,0.00,217.000000,,2013-02-08 18:33:00,
2013-02-08 11:42:00,33.0,14.0,-100.00,ENE,77,0.0,8.0,45,0.00,,,0.00,217.000000,,2013-02-08 18:42:00,
2013-02-08 11:52:00,33.0,14.0,-100.00,ENE,77,0.0,8.0,45,0.00,,,0.00,217.000000,,2013-02-08 18:52:00,
2013-02-08 12:22:00,38.0,15.0,-100.00,ESE,102,2.0,7.0,38,0.00,,,0.00,436.000000,,2013-02-08 19:22:00,
2013-02-08 12:32:00,38.0,15.0,-100.00,ESE,102,2.0,7.0,38,0.00,,,0.00,436.000000,,2013-02-08 19:32:00,
2013-02-08 12:41:00,38.0,15.0,-100.00,ESE,102,2.0,7.0,38,0.00,,,0.00,436.000000,,2013-02-08 19:41:00,
2013-02-08 12:52:00,38.0,15.0,-100.00,ESE,102,2.0,7.0,38,0.00,,,0.00,436.000000,,2013-02-08 19:52:00,
2013-02-08 13:11:00,34.0,16.0,-100.00,SSE,153,4.0,9.0,47,0.00,,,0.00,595.000000,,2013-02-08 20:11:00,
2013-02-08 13:21:00,34.0,16.0,-100.00,SSE,153,4.0,9.0,47,0.00,,,0.00,595.000000,,2013-02-08 20:21:00,
2013-02-08 13:31:00,34.0,16.0,-100.00,SSE,153,4.0,9.0,47,0.00,,,0.00,595.000000,,2013-02-08 20:31:00,
2013-02-08 13:41:00,34.0,16.0,-100.00,SSE,153,4.0,9.0,47,0.00,,,0.00,595.000000,,2013-02-08 20:41:00,
2013-02-08 13:52:00,34.0,16.0,-100.00,SSE,153,4.0,9.0,47,0.00,,,0.00,595.000000,,2013-02-08 20:52:00,
2013-02-08 14:11:00,34.0,17.0,-100.00,SSE,148,4.0,8.0,49,0.00,,,0.00,576.000000,,2013-02-08 21:11:00,
2013-02-08 14:21:00,34.0,17.0,-100.00,SSE,148,4.0,8.0,49,0.00,,,0.00,576.000000,,2013-02-08 21:21:00,
2013-02-08 14:32:00,34.0,17.0,-100.00,SSE,148,4.0,8.0,49,0.00,,,0.00,576.000000,,2013-02-08 21:32:00,
2013-02-08 14:41:00,34.0,17.0,-100.00,SSE,148,4.0,8.0,49,0.00,,,0.00,576.000000,,2013-02-08 21:41:00,
2013-02-08 14:52:00,34.0,17.0,-100.00,SSE,148,4.0,8.0,49,0.00,,,0.00,576.000000,,2013-02-08 21:52:00,
2013-02-08 15:11:00,33.0,15.0,-100.00,SSE,163,4.0,8.0,47,0.00,,,0.00,510.000000,,2013-02-08 22:11:00,
2013-02-08 15:21:00,33.0,15.0,-100.00,SSE,163,4.0,8.0,47,0.00,,,0.00,510.000000,,2013-02-08 22:21:00,
2013-02-08 15:31:00,33.0,15.0,-100.00,SSE,163,4.0,8.0,47,0.00,,,0.00,510.000000,,2013-02-08 22:31:00,
2013-02-08 15:41:00,33.0,15.0,-100.00,SSE,163,4.0,8.0,47,0.00,,,0.00,510.000000,,2013-02-08 22:41:00,
2013-02-08 15:51:00,33.0,15.0,-100.00,SSE,163,4.0,8.0,47,0.00,,,0.00,510.000000,,2013-02-08 22:51:00,
2013-02-08 16:11:00,32.0,15.0,-100.00,SE,132,3.0,8.0,49,0.00,,,0.00,337.000000,,2013-02-08 23:11:00,
2013-02-08 16:21:00,32.0,15.0,-100.00,SE,132,3.0,8.0,49,0.00,,,0.00,337.000000,,2013-02-08 23:21:00,
2013-02-08 16:31:00,32.0,15.0,-100.00,SE,132,3.0,8.0,49,0.00,,,0.00,337.000000,,2013-02-08 23:31:00,
2013-02-08 16:41:00,32.0,15.0,-100.00,SE,132,3.0,8.0,49,0.00,,,0.00,337.000000,,2013-02-08 23:41:00,
2013-02-08 16:52:00,32.0,15.0,-100.00,SE,132,3.0,8.0,49,0.00,,,0.00,337.000000,,2013-02-08 23:52:00,
2013-02-08 17:11:00,29.0,15.0,-100.00,SSE,163,1.0,8.0,56,0.00,,,0.00,78.000000,,2013-02-09 00:11:00,
2013-02-08 17:21:00,29.0,15.0,-100.00,SSE,163,1.0,8.0,56,0.00,,,0.00,78.000000,,2013-02-09 00:21:00,
2013-02-08 17:32:00,29.0,15.0,-100.00,SSE,163,1.0,8.0,56,0.00,,,0.00,78.000000,,2013-02-09 00:32:00,
2013-02-08 17:42:00,29.0,15.0,-100.00,SSE,163,1.0,8.0,56,0.00,,,0.00,78.000000,,2013-02-09 00:42:00,
2013-02-08 17:51:00,29.0,15.0,-100.00,SSE,163,1.0,8.0,56,0.00,,,0.00,78.000000,,2013-02-09 00:51:00,
2013-02-08 18:11:00,28.0,15.0,-100.00,NW,308,0.0,8.0,58,0.00,,,0.00,33.000000,,2013-02-09 01:11:00,
2013-02-08 18:21:00,28.0,15.0,-100.00,NW,308,0.0,8.0,58,0.00,,,0.00,33.000000,,2013-02-09 01:21:00,
2013-02-08 18:31:00,28.0,15.0,-100.00,NW,308,0.0,8.0,58,0.00,,,0.00,33.000000,,2013-02-09 01:31:00,
2013-02-08 18:41:00,28.0,15.0,-100.00,NW,308,0.0,8.0,58,0.00,,,0.00,33.000000,,2013-02-09 01:41:00,
2013-02-08 18:52:00,28.0,15.0,-100.00,NW,308,0.0,8.0,58,0.00,,,0.00,33.000000,,2013-02-09 01:52:00,
2013-02-08 19:21:00,27.0,14.0,-100.00,WNW,293,7.0,7.0,57,0.00,,,0.00,0.000000,,2013-02-09 02:21:00,
2013-02-08 19:32:00,27.0,14.0,-100.00,WNW,293,7.0,7.0,57,0.00,,,0.00,0.000000,,2013-02-09 02:32:00,
2013-02-08 19:41:00,27.0,14.0,-100.00,WNW,293,7.0,7.0,57,0.00,,,0.00,0.000000,,2013-02-09 02:41:00,
2013-02-08 19:52:00,27.0,14.0,-100.00,WNW,293,7.0,7.0,57,0.00,,,0.00,0.000000,,2013-02-09 02:52:00,
2013-02-08 20:11:00,26.0,11.0,-100.00,NW,318,5.0,12.0,53,0.00,,,0.00,0.000000,,2013-02-09 03:11:00,
2013-02-08 20:21:00,26.0,11.0,-100.00,NW,318,5.0,12.0,53,0.00,,,0.00,0.000000,,2013-02-09 03:21:00,
2013-02-08 20:32:00,26.0,11.0,-100.00,NW,318,5.0,12.0,53,0.00,,,0.00,0.000000,,2013-02-09 03:32:00,
2013-02-08 20:41:00,26.0,11.0,-100.00,NW,318,5.0,12.0,53,0.00,,,0.00,0.000000,,2013-02-09 03:41:00,
2013-02-08 20:51:00,26.0,11.0,-100.00,NW,318,5.0,12.0,53,0.00,,,0.00,0.000000,,2013-02-09 03:51:00,
2013-02-08 21:22:00,25.0,12.0,-100.00,WNW,290,4.0,9.0,57,0.00,,,0.00,0.000000,,2013-02-09 04:22:00,
2013-02-08 21:32:00,25.0,12.0,-100.00,WNW,290,4.0,9.0,57,0.00,,,0.00,0.000000,,2013-02-09 04:32:00,
2013-02-08 21:42:00,25.0,12.0,-100.00,WNW,290,4.0,9.0,57,0.00,,,0.00,0.000000,,2013-02-09 04:42:00,
2013-02-08 21:51:00,25.0,12.0,-100.00,WNW,290,4.0,9.0,57,0.00,,,0.00,0.000000,,2013-02-09 04:51:00,
2013-02-08 22:22:00,25.0,11.0,-100.00,WNW,303,9.0,10.0,54,0.00,,,0.00,0.000000,,2013-02-09 05:22:00,
2013-02-08 22:31:00,25.0,11.0,-100.00,WNW,303,9.0,10.0,54,0.00,,,0.00,0.000000,,2013-02-09 05:31:00,
2013-02-08 22:41:00,25.0,11.0,-100.00,WNW,303,9.0,10.0,54,0.00,,,0.00,0.000000,,2013-02-09 05:41:00,
2013-02-08 22:52:00,25.0,11.0,-100.00,WNW,303,9.0,10.0,54,0.00,,,0.00,0.000000,,2013-02-09 05:52:00,
2013-02-08 23:11:00,25.0,10.0,-100.00,WNW,298,8.0,14.0,53,0.00,,,0.00,0.000000,,2013-02-09 06:11:00,
2013-02-08 23:21:00,25.0,10.0,-100.00,WNW,298,8.0,14.0,53,0.00,,,0.00,0.000000,,2013-02-09 06:21:00,
2013-02-08 23:31:00,25.0,10.0,-100.00,WNW,298,8.0,14.0,53,0.00,,,0.00,0.000000,,2013-02-09 06:31:00,
2013-02-08 23:41:00,25.0,10.0,-100.00,WNW,298,8.0,14.0,53,0.00,,,0.00,0.000000,,2013-02-09 06:41:00,
2013-02-08 23:51:00,25.0,10.0,-100.00,WNW,298,8.0,14.0,53,0.00,,,0.00,0.000000,,2013-02-09 06:51:00,